COSMOS 2251 DEB, 34884

Orbit data source: Space-Track

COSMOS 2251 DEB, 34884 is space debris in LEO originally from a launch on Wed, 16 Jun 1993 UTC launched from the Plesetsk Missile And Space Complex (PKMTR). The debris from Iridium 33, an American commercial communications satellite, has been tracked extensively since its accidental collision with the defunct Russian satellite Cosmos 2251 in 2009. This event, occurring at high speed in low Earth orbit (LEO), generated thousands of pieces of space debris, significantly increasing the risk of further collisions. The Iridium 33 debris cloud has impacted space traffic management and orbital debris mitigation strategies, making it a subject of ongoing study in space situational awareness.

Loading next visibility...
Identifier
34884, 1993-036ACX
Orbit
LEO
Country
Flag of CISCIS
Related business
Manufacturer
Unknown
Mission
Spacecraft
Bus & Motor
Unknown
Mass
Unknown
Launch date (UTC)
1993-06-16 (32 years ago)
Launch vehicle
Unknown
Launch site
Plesetsk Missile And Space Complex (PKMTR)
Object type
Payload
Rocket body
Debris
Shape & HBR
Unknown shape, 0.1 m
Radar Cross Section
Small (<0.1 m²)

Expand to show TLE details & history
Last TLE update: 4 hours ago

TLE from 4 hours ago
0 COSMOS 2251 DEB
1 34884U 93036ACX 25302.56190176  .00023861  00000-0  26689-2 0  9998
2 34884  74.0169 145.0205 0008735 215.8624 175.1860 14.86812791871487
Epoch: 2025-10-29T13:29Z
TLE epoch observation values (Epoch: 2025-10-29T13:29:08.312Z)
Latitude
29.79054°
Longitude
-86.01142°
Altitude
617.433 km
Speed
7.55 km/s
True Right ascension
10h 17m 37s
True Declination
29° 38' 22"
Sunlit
Object was in daylight at epoch
Visualization orbit readout
Latitude
Unknown
Longitude
Unknown
Altitude
Unknown
Speed
Unknown
Apparent Right ascension
Unknown
Apparent Declination
Unknown
Sunlit
N/A
Visualization observer readout
Local Sidereal Time
12:40:40
Azimuth
Unknown
Elevation
Unknown
Doppler factor
Unknown
Orbital elements
Apogee altitude
611.572 km
Perigee altitude
599.371 km
Semi-major axis
6,983.608 km
Eccentricity
0.00087
Inclination
74.0169°
RAAN
145.0205°
Arg. of periapsis
215.8624°
True anomaly
175.19439°
Mean anomaly
175.186°
Eccentric anomaly
175.1902°
Mean motion
3.71898 °/min
Orbital period
96.8 mins
BSTAR
0.0026689

Documentation

Showing up to 5 results
|